Wind_Speed
7 5 3 2 2 4 4 3 1 3 1 6 6 5 6 5 6 7 8 5 5 5 3 7 8 5 1 3 6 5 6 6 5 2 3 7 14 14 11 13 14 13 13 11 12 13 13 14 11 9 9 9 8 8 9 9 9 11 12 13 14 14 13 13 15 14 13 14 15 14 14 14 13 13 12 13 14 15 16 15 14 15 15 15 15 16 17 17 16 16 15 15 15 16 16 15 14
5 4 2 1 2 4 1 1 1 4 4 7 6 6 6 4 5 7 7 5 6 7 7 8 7 5 2 2 5 5 9 10 8 8 9 14 16 12 13 13 13 14 12 11 11 12 14 15 12 9 10 9 8 8 9 9 10 10 11 12 13 14 12 13 15 14 14 15 15 13 13 13 13 13 12 13 14 15 15 15 14 14 15 15 14 15 17 17 17 16 16 15 15 15 15 15 14
4 3 2 2 4 5 2 2 1 4 5 7 7 6 5 5 7 7 6 6 8 9 9 8 6 4 2 5 4 4 8 8 10 11 10 15 13 11 14 13 13 13 12 12 11 11 13 16 13 10 11 10 8 8 9 10 10 10 11 11 12 13 12 14 15 14 14 16 15 12 12 13 13 13 13 13 13 14 15 15 15 14 14 14 15 15 16 17 16 16 15 15 15 15 15 14 14
3 1 2 4 4 4 4 2 1 3 6 6 6 6 6 7 8 7 6 6 8 9 9 8 6 3 3 7 5 5 8 7 10 11 9 11 12 14 15 13 13 12 12 12 11 12 13 15 14 12 12 10 8 9 9 10 10 10 10 11 13 13 13 14 15 15 15 14 14 12 12 12 13 12 12 12 13 13 14 15 15 15 14 15 15 15 16 17 16 16 15 14 14 14 15 14 14
2 2 2 4 3 1 3 1 2 4 6 5 6 7 7 7 7 7 7 7 7 8 8 5 5 5 4 8 4 4 7 7 10 11 11 12 15 17 14 14 13 12 12 12 12 12 13 15 13 12 12 10 9 9 9 10 10 10 11 12 12 13 13 14 14 15 14 13 13 12 12 12 12 12 12 12 12 12 13 14 15 15 15 15 15 16 16 17 16 15 15 14 13 14 15 15 14
1 3 3 5 3 2 2 2 4 6 6 4 7 7 6 7 7 7 7 7 6 7 7 3 4 6 6 7 6 7 5 6 10 10 12 15 17 17 14 13 12 13 13 12 12 13 14 14 13 12 11 11 9 9 9 10 10 9 10 12 12 12 13 13 14 14 13 13 12 12 12 12 11 11 11 11 12 12 12 13 15 15 15 15 15 16 16 16 16 15 15 14 14 14 14 15 14
2 3 3 4 2 2 1 5 6 7 5 4 8 7 7 7 6 7 8 7 6 6 5 2 3 5 6 4 6 10 7 7 10 10 13 17 17 16 14 12 13 13 12 12 12 13 14 13 12 11 10 10 10 10 10 9 9 9 10 12 11 11 11 12 13 13 13 13 12 11 11 12 11 10 11 11 12 12 11 13 14 14 15 15 16 16 16 16 15 15 15 14 14 14 15 14 13
4 3 2 3 2 3 2 6 6 6 5 5 7 7 8 7 5 5 6 5 5 5 5 4 3 3 6 3 5 9 8 9 11 14 16 18 17 15 13 12 13 13 12 13 13 14 14 13 12 11 10 10 10 10 10 9 9 9 10 12 11 10 10 12 13 13 12 13 12 11 11 11 11 10 11 11 12 12 11 12 13 13 14 15 15 15 15 15 14 15 15 15 15 15 15 14 13
4 3 2 2 1 3 4 6 6 6 7 6 7 6 7 6 4 3 4 4 5 5 5 5 2 2 7 7 8 8 9 12 15 17 17 17 16 14 12 12 13 13 13 12 12 13 12 13 12 11 11 10 10 10 10 10 8 8 10 12 11 10 10 12 14 13 12 13 12 10 11 10 10 11 11 11 12 12 11 11 12 12 12 14 15 15 15 15 15 15 15 15 15 15 15 14 13
2 3 2 2 2 5 5 6 6 6 7 6 6 7 6 5 3 2 3 5 6 6 6 4 2 4 7 9 8 7 10 14 16 17 16 16 15 13 12 11 12 13 13 12 12 12 11 12 11 11 10 10 10 9 10 10 9 8 9 11 11 9 9 12 13 12 11 13 13 11 11 10 10 11 11 11 11 12 11 11 11 11 11 12 14 15 15 15 15 14 14 15 15 15 15 14 13
2 3 2 2 3 5 5 6 6 6 7 5 6 6 5 4 3 3 4 5 5 6 6 2 4 8 8 9 7 8 12 14 16 16 16 15 14 13 12 11 11 12 13 12 12 12 11 11 11 10 10 10 10 10 10 11 10 8 9 10 10 9 9 12 12 11 11 13 13 12 11 11 11 11 11 11 12 12 11 10 10 11 11 11 13 14 14 15 15 14 13 14 14 15 15 15 14
2 2 3 2 2 4 5 7 7 7 7 5 6 5 4 4 3 4 5 6 6 6 5 1 4 8 8 9 7 9 13 14 14 15 15 14 13 13 12 11 11 12 12 12 12 12 11 10 10 10 10 10 10 11 11 10 9 9 11 11 9 9 10 11 11 11 12 12 13 13 12 11 12 12 12 12 12 12 10 10 11 11 11 11 11 12 14 14 14 14 14 13 13 13 14 14 14
2 1 4 2 2 3 5 6 7 7 7 5 6 5 4 4 3 4 4 6 5 4 6 4 6 6 7 10 8 10 12 13 14 14 14 13 13 12 11 11 12 12 12 11 12 12 10 10 9 9 9 9 9 11 11 10 8 8 11 13 10 9 10 11 10 11 12 12 14 13 12 12 13 13 13 13 12 11 10 11 12 12 12 11 11 11 12 13 13 13 13 12 12 12 12 12 12
2 2 4 1 2 3 5 5 6 5 6 6 5 5 5 3 2 3 3 6 6 5 7 7 6 5 8 9 7 8 11 14 15 14 14 12 13 12 12 12 12 12 12 11 11 11 10 9 8 8 9 8 9 10 11 10 8 6 9 13 12 10 10 10 10 11 10 12 14 13 13 13 13 14 13 12 12 11 11 11 12 13 13 12 11 10 10 11 11 12 11 11 11 11 10 10 10
2 2 4 1 3 3 3 3 4 3 6 7 5 6 6 2 3 4 2 4 6 5 7 7 3 2 7 8 7 9 13 16 15 14 14 13 13 12 12 12 11 11 10 11 11 10 10 9 8 8 8 8 8 8 10 10 9 7 8 11 11 10 10 10 10 11 11 12 13 13 13 13 14 13 12 12 11 11 11 11 12 12 12 13 12 10 9 9 10 10 10 10 10 9 8 8 8
2 3 4 1 2 2 3 2 2 2 6 8 6 6 6 4 4 4 2 2 6 7 5 5 2 2 3 6 10 16 18 18 16 15 14 14 13 12 12 11 11 10 9 10 10 10 9 9 8 7 8 8 8 8 9 10 11 9 7 9 11 10 10 9 9 10 11 12 12 13 13 13 14 13 12 11 11 12 11 11 11 12 12 12 11 10 9 9 9 10 9 9 9 8 7 7 7
2 4 4 2 2 1 2 2 2 1 5 8 7 6 6 7 4 3 2 2 7 7 3 5 4 3 3 9 16 21 20 18 17 16 15 14 12 11 11 10 10 10 9 9 9 10 9 8 8 7 7 7 8 8 8 9 10 11 8 8 10 11 11 9 9 9 11 12 12 13 11 11 12 12 11 11 11 11 11 11 11 11 12 11 11 10 9 8 8 9 8 8 7 6 6 5 6
3 4 3 1 2 3 3 3 3 1 5 8 7 5 4 7 6 4 5 4 6 6 5 6 6 7 9 15 20 22 20 19 18 17 15 13 12 11 11 10 10 10 10 9 9 9 9 8 8 8 7 7 8 8 8 8 9 10 9 8 9 10 12 10 9 9 10 10 11 10 9 10 11 11 10 10 10 10 10 10 10 10 11 11 11 10 9 8 8 7 7 6 4 5 5 3 3
2 3 2 3 4 5 4 4 5 2 4 8 7 4 2 6 7 6 5 5 7 6 6 7 8 10 13 17 20 20 19 18 17 16 15 13 11 11 10 10 10 10 10 10 10 9 9 8 8 8 7 7 7 7 8 9 8 8 8 8 8 8 11 11 10 10 9 9 9 8 8 10 11 10 10 10 10 10 10 10 10 10 11 10 10 10 9 8 7 6 5 4 4 5 4 2 1
1 3 0 6 5 5 5 4 4 3 2 6 7 4 2 5 6 6 4 4 6 3 6 6 8 12 14 17 18 19 18 17 16 15 14 12 11 10 9 10 10 10 10 10 10 10 9 9 8 8 8 7 7 7 8 9 9 7 7 7 7 7 8 10 9 9 9 8 8 8 9 11 11 11 11 10 10 9 9 9 10 10 9 10 10 8 7 7 7 5 5 5 3 2 1 1 1
1 3 3 7 3 3 5 4 3 2 0 3 6 4 5 6 4 5 4 3 3 2 4 5 8 14 15 16 17 18 17 16 15 13 13 12 10 10 9 9 9 9 10 9 10 10 10 9 9 8 8 7 6 6 7 8 9 7 6 6 6 7 7 8 8 8 8 8 8 9 10 10 10 10 9 9 8 8 8 8 8 8 7 8 8 5 4 5 5 4 3 3 1 0 0 1 1
1 4 5 6 2 3 5 3 2 1 1 2 5 4 6 6 4 4 4 2 4 2 3 4 8 14 16 16 16 16 15 15 14 13 12 12 10 9 9 9 9 10 9 9 10 10 10 10 10 9 8 8 6 5 7 8 8 7 6 6 6 7 7 8 7 7 7 7 8 9 10 10 10 10 9 9 9 8 8 8 8 8 7 6 6 5 5 5 4 4 3 2 2 1 1 1 1
1 4 5 5 4 4 4 4 2 2 2 3 3 2 5 5 3 4 4 3 5 3 4 6 9 14 16 17 15 14 13 13 13 13 12 12 11 9 9 9 8 9 9 9 10 10 11 10 10 9 9 9 7 5 6 7 7 7 7 6 6 7 7 7 7 7 6 7 7 8 9 10 10 10 10 10 9 9 9 9 9 8 7 6 5 5 5 5 5 5 5 4 4 2 2 1 1
3 5 5 4 5 4 3 4 3 3 3 3 2 2 4 5 2 3 4 3 4 2 6 8 11 14 16 15 13 13 12 12 12 12 12 11 10 9 9 8 8 9 9 9 10 10 11 11 11 10 9 9 8 6 6 7 6 7 7 6 6 7 7 7 7 7 6 7 7 8 9 10 11 11 11 10 9 9 8 8 8 7 7 6 6 6 5 5 5 6 6 5 5 4 3 3 2
4 5 4 4 4 3 3 3 4 4 3 2 3 3 4 3 0 2 3 4 4 5 9 10 12 14 14 13 13 12 11 12 12 11 11 9 9 9 8 8 8 8 9 9 10 10 11 11 11 11 10 9 8 7 6 7 7 7 7 6 6 6 7 7 7 7 6 7 7 8 8 10 10 10 10 9 9 9 8 7 7 7 7 6 6 6 6 6 5 6 6 5 5 5 4 5 4
5 4 4 3 4 3 2 3 3 4 3 2 3 1 1 1 2 1 3 4 5 7 10 11 12 13 12 12 12 11 11 11 11 11 10 9 9 9 8 8 8 8 8 9 9 10 10 11 12 11 11 10 9 8 7 7 8 8 8 6 6 6 6 7 7 7 7 7 7 7 8 9 9 10 9 9 8 8 7 6 7 7 7 6 6 6 6 6 6 6 6 6 6 6 6 6 4
4 4 4 3 4 3 2 3 3 3 3 2 3 3 1 2 3 1 2 5 7 8 11 12 12 12 11 11 11 10 10 10 10 10 9 9 9 9 8 8 8 8 8 9 9 9 10 11 12 12 11 10 9 9 8 7 8 8 8 7 6 5 6 7 7 7 7 7 6 6 8 9 8 9 9 7 7 7 7 7 7 7 7 6 6 6 6 6 6 6 6 7 7 6 6 6 5
4 3 4 4 4 4 3 3 2 1 2 3 3 6 4 3 2 3 4 6 8 9 11 12 12 11 11 11 10 9 9 9 9 8 9 9 8 8 8 8 8 8 8 8 8 8 10 11 11 12 11 10 10 9 8 8 8 8 8 7 6 6 6 7 7 8 7 6 6 6 7 8 8 8 7 7 7 7 7 7 7 6 7 6 6 6 6 6 5 5 6 6 6 6 6 6 5
3 2 2 3 5 4 3 2 2 1 1 2 1 5 7 6 3 5 7 7 8 9 10 11 12 11 10 10 9 8 8 9 8 7 8 7 7 8 8 8 8 8 8 8 8 9 10 10 11 11 11 10 10 9 9 8 8 8 8 8 8 7 7 7 8 8 8 6 6 7 8 9 8 7 6 6 6 7 7 7 7 6 6 6 6 6 5 5 5 5 5 5 6 6 7 7 5
3 2 3 1 5 3 4 2 1 1 1 2 3 4 6 8 5 5 7 8 9 9 10 10 11 11 10 9 8 8 8 9 8 7 7 6 6 7 7 8 8 8 8 8 9 10 10 10 11 11 12 11 10 9 9 8 8 8 8 8 9 8 7 8 8 8 8 6 6 8 9 8 7 6 6 6 5 7 7 6 6 6 6 5 6 6 5 5 6 6 6 5 6 6 7 7 5
2 1 2 1 0 3 5 2 1 1 2 1 4 4 2 6 6 7 7 8 10 9 10 10 10 10 9 9 8 8 9 9 9 8 7 7 6 7 7 8 8 8 9 9 10 11 11 11 11 12 12 12 11 10 9 8 8 8 8 9 9 8 7 7 8 8 8 7 8 9 8 7 7 6 6 6 5 5 6 6 5 5 5 4 5 5 5 5 5 6 7 6 6 6 6 6 5
2 2 1 1 2 3 5 3 3 1 1 2 4 4 1 5 5 7 7 7 9 9 9 10 10 11 10 9 9 8 8 9 9 9 8 8 7 6 7 8 8 8 9 10 11 12 12 12 12 12 13 13 12 10 9 8 8 9 9 9 8 8 7 7 8 8 8 8 9 9 8 7 7 7 7 6 5 4 5 5 5 5 5 4 5 5 4 4 5 5 7 7 7 7 6 5 5
2 2 1 2 2 1 3 4 2 2 2 3 5 5 1 4 3 5 6 7 9 9 9 10 10 11 10 9 8 7 7 8 9 9 9 8 7 7 7 8 8 8 9 9 11 11 12 13 13 12 13 13 12 11 10 8 8 9 9 9 9 8 7 7 8 8 8 9 9 9 8 7 7 7 7 6 4 3 4 4 4 4 4 4 4 4 3 3 4 5 6 7 8 7 6 5 4
3 2 1 0 3 4 1 3 2 2 4 3 5 6 2 4 3 3 6 8 9 9 9 10 10 10 9 8 8 7 7 7 8 8 9 8 7 8 8 8 9 8 9 9 10 10 10 12 12 12 13 13 12 11 10 9 9 9 9 9 9 9 8 8 8 9 9 10 9 9 9 7 7 7 6 6 4 2 3 3 4 4 3 3 3 2 2 3 4 5 5 6 7 6 6 5 5
1 1 2 2 3 3 3 3 2 1 4 4 5 6 4 3 4 2 6 9 9 10 9 9 10 9 9 8 7 7 7 7 7 8 9 9 8 9 8 9 9 9 9 10 10 10 10 11 12 13 13 13 13 12 11 10 9 9 9 9 9 9 8 7 8 9 9 10 10 10 9 8 7 7 6 5 3 2 2 2 2 3 2 3 2 1 1 2 4 5 6 7 7 6 5 5 4
6 5 6 6 6 3 3 3 3 3 5 5 5 5 4 4 5 4 5 8 9 9 9 8 8 9 8 8 7 7 7 6 7 7 8 9 9 9 9 9 9 9 9 11 11 10 10 11 12 13 13 13 13 12 11 11 10 10 9 10 10 9 8 8 8 9 10 9 9 10 9 7 7 6 5 5 3 2 1 1 2 2 2 2 2 1 1 1 3 5 6 6 7 5 3 3 4
7 8 7 6 6 2 3 2 2 3 5 3 3 5 5 5 6 6 5 7 9 10 10 9 9 9 8 8 8 8 7 6 6 8 8 9 10 10 10 9 10 10 10 12 12 11 11 11 12 13 13 13 13 13 12 11 11 10 11 10 10 10 9 8 9 9 10 9 8 9 8 7 7 6 5 5 3 2 2 1 2 1 2 2 2 1 1 1 2 3 4 4 5 4 3 3 4
8 8 7 6 4 1 4 1 1 0 4 1 1 6 6 6 6 7 6 7 10 12 12 11 11 10 8 9 9 8 7 6 7 8 9 10 11 11 11 10 11 11 12 12 12 11 11 12 12 13 13 13 12 12 12 11 11 11 11 10 10 10 10 9 9 9 9 9 8 8 6 6 6 5 4 4 3 2 2 1 1 1 1 1 2 1 1 1 1 2 3 3 4 4 3 3 4
9 6 7 5 1 2 3 2 2 1 3 3 3 6 5 5 7 8 8 7 8 10 12 12 12 11 9 9 9 8 8 7 7 9 10 12 12 12 12 11 11 11 12 13 12 12 12 12 12 12 13 13 12 12 12 12 12 11 10 10 9 9 11 10 9 9 8 8 9 7 6 5 5 5 4 3 3 2 2 1 1 1 1 1 1 1 1 1 0 1 1 3 4 5 4 1 3
8 6 7 4 1 1 1 3 4 2 2 4 7 7 5 5 7 8 9 8 6 7 9 10 11 11 11 10 9 9 9 9 9 9 10 12 13 13 12 12 11 11 12 13 13 13 13 13 13 13 13 13 13 13 13 12 12 11 9 9 8 7 9 9 7 8 8 7 8 7 6 5 5 4 3 3 2 1 1 1 0 0 1 1 0 0 1 1 1 0 0 1 3 5 3 1 2
8 8 8 5 1 3 3 3 5 3 3 2 7 8 3 5 7 8 9 10 8 7 8 10 11 11 11 10 9 9 9 9 9 9 10 11 14 14 13 12 12 12 12 13 14 13 13 13 14 14 13 13 13 14 14 13 13 12 10 9 8 7 9 9 8 9 9 8 7 7 6 6 5 5 3 3 3 1 1 1 1 1 1 0 1 1 1 1 1 1 1 0 1 3 3 3 2
7 8 8 7 4 3 2 4 4 4 2 1 5 6 1 5 5 6 8 10 10 9 10 12 13 12 11 10 10 10 9 9 9 9 10 11 13 14 14 14 13 12 13 13 13 13 12 14 15 14 14 13 13 15 15 14 14 13 11 11 11 9 9 10 10 10 10 9 8 7 6 6 6 5 4 4 3 2 2 1 2 2 2 1 1 2 1 1 2 1 1 1 0 1 2 3 3
6 3 3 5 4 3 4 4 4 5 2 3 2 6 3 3 5 5 7 10 11 10 10 12 12 12 12 11 10 10 10 10 9 10 10 11 13 14 15 15 14 12 13 13 13 13 13 14 15 15 14 13 13 15 15 14 13 13 12 12 12 11 10 10 10 9 9 9 8 6 6 6 6 6 5 4 4 3 3 3 3 3 3 3 2 2 3 2 2 1 1 0 0 0 1 2 3
3 3 2 3 3 4 4 5 5 4 2 2 2 3 5 1 4 7 8 8 10 10 10 10 11 12 14 13 12 12 11 10 9 10 11 12 13 15 15 15 14 12 13 14 14 14 14 14 15 15 13 13 13 15 16 14 13 13 13 12 11 11 11 10 10 9 7 7 7 7 6 6 6 6 5 5 5 4 4 4 4 4 4 3 3 3 4 3 1 1 1 1 1 1 1 2 3
1 4 2 3 4 5 4 5 4 2 4 2 2 1 5 2 5 6 8 8 8 10 11 12 11 12 13 13 14 13 12 11 10 10 11 12 14 15 15 15 14 13 13 14 14 14 15 14 15 15 14 13 13 14 15 14 12 13 13 12 11 11 10 9 10 9 7 7 7 7 6 6 6 6 6 6 6 6 5 5 5 5 5 4 4 4 3 3 2 2 2 2 2 2 2 2 3
3 3 4 4 4 5 4 5 3 3 6 3 2 3 5 1 3 5 7 7 8 11 12 11 11 11 12 12 13 13 12 11 11 11 11 13 14 15 15 15 14 13 13 14 14 15 15 15 15 15 14 14 14 14 15 14 13 13 14 13 12 11 10 9 9 9 8 8 8 8 7 6 6 6 7 7 7 7 6 6 6 6 6 5 5 4 3 3 3 3 3 3 3 3 3 3 4
6 7 6 5 5 4 4 4 3 5 4 1 3 4 4 2 2 4 4 4 6 8 9 9 11 11 12 12 12 13 12 11 11 11 11 13 14 14 14 15 15 14 13 14 15 15 16 16 16 16 15 14 15 15 15 15 14 13 13 13 13 13 11 10 10 9 9 8 8 8 7 7 7 7 7 7 8 8 7 7 7 6 6 5 5 5 5 4 4 4 4 3 3 3 3 4 5
8 6 5 5 4 3 4 3 4 6 2 2 3 4 4 3 1 3 3 3 4 5 8 10 13 12 11 11 12 12 11 11 11 10 10 12 13 14 14 15 15 15 15 15 15 16 16 17 17 17 16 15 15 16 16 15 15 14 14 13 13 13 12 12 11 11 10 10 9 9 8 7 7 7 7 7 7 8 7 7 7 6 6 5 5 5 5 4 4 4 4 3 3 3 4 4 5
7 5 4 5 3 3 5 4 4 4 1 3 2 2 3 3 1 2 1 3 3 3 4 7 11 12 11 10 10 11 11 11 11 10 10 10 11 14 16 16 16 17 17 16 16 16 17 17 19 19 18 17 16 17 17 16 15 14 14 14 13 13 13 12 12 11 11 10 10 9 8 8 7 8 7 7 7 7 7 7 7 7 6 5 5 5 5 5 5 5 5 4 4 3 3 4 5
7 5 4 5 4 4 6 4 3 3 2 3 1 2 3 2 1 1 2 3 2 2 2 3 5 8 10 10 9 9 10 11 11 11 11 10 11 15 17 17 18 18 18 18 17 16 17 17 19 20 19 18 17 17 17 17 16 15 14 14 14 13 13 12 12 11 11 11 10 9 9 8 8 8 7 7 7 7 7 7 7 8 7 6 5 5 5 5 5 6 5 5 5 4 4 5 6
6 4 4 6 5 4 5 4 3 3 1 2 2 2 4 2 2 2 3 5 4 3 2 3 4 4 5 8 10 9 10 11 10 11 12 12 13 16 17 18 19 19 19 19 18 17 17 17 19 21 21 20 19 18 18 18 17 16 15 15 14 14 14 13 12 11 10 11 10 9 8 8 7 7 7 6 6 7 7 7 8 8 7 7 6 6 6 6 6 6 6 6 6 5 5 6 6
4 4 5 5 3 3 4 4 4 5 4 3 3 3 3 2 2 4 4 4 4 4 4 4 5 5 5 7 9 9 9 10 10 10 11 13 15 17 17 18 18 19 19 20 19 19 18 18 19 21 21 21 21 20 19 18 18 17 17 17 16 15 14 13 12 11 10 10 9 9 8 8 7 6 6 6 7 7 7 7 8 8 7 7 6 6 6 6 5 6 6 6 7 6 6 6 6
3 4 4 1 3 4 4 3 3 5 6 3 1 4 4 2 3 4 3 3 5 6 5 5 5 6 6 6 7 8 9 10 11 10 11 12 15 16 17 17 18 18 19 20 20 21 20 19 20 21 21 21 22 22 20 19 18 17 18 18 18 16 15 14 13 13 12 11 10 9 9 9 8 7 7 7 7 8 8 8 8 7 7 7 7 7 7 6 6 6 6 7 7 7 7 7 7
3 3 2 2 0 3 4 3 3 4 6 2 1 5 5 3 2 4 4 3 5 6 4 5 5 5 6 5 6 7 8 9 10 9 9 10 13 16 17 17 18 19 20 21 22 21 20 20 20 21 21 21 21 22 21 20 19 19 18 19 20 18 17 16 14 14 13 12 11 11 10 9 9 8 7 6 7 7 8 8 8 7 7 7 7 7 7 6 6 7 7 7 8 8 8 8 8
5 3 2 3 3 3 3 4 4 4 5 3 1 2 5 4 2 1 2 2 4 6 4 4 4 4 4 5 5 6 7 7 6 6 6 7 11 15 16 16 17 18 19 20 21 20 19 20 20 20 21 21 20 20 20 20 19 19 18 19 21 20 18 17 15 14 13 12 12 12 11 11 10 9 8 7 7 8 8 8 9 9 8 8 8 8 7 7 8 8 8 8 8 8 8 8 8
5 4 3 4 5 3 1 3 4 4 5 5 2 2 3 2 2 3 2 3 3 4 4 3 2 3 3 2 3 4 5 6 6 6 5 5 8 12 15 15 15 16 17 17 19 20 20 19 20 20 20 20 20 19 19 19 19 19 18 18 20 20 19 17 16 15 14 13 12 12 12 12 11 9 9 9 9 9 8 9 9 9 9 9 8 8 7 7 8 8 8 8 7 7 8 8 9
6 6 5 5 4 3 3 4 4 5 6 5 4 5 2 3 3 2 3 4 2 2 2 3 2 2 1 1 1 1 2 3 5 6 6 6 8 10 12 14 14 15 16 16 18 19 19 18 19 20 20 20 20 20 19 19 19 18 18 18 19 19 19 18 17 15 15 14 13 13 12 11 11 10 9 9 10 10 9 9 9 9 9 8 8 7 7 7 8 8 8 9 8 7 7 9 10
4 5 5 5 5 5 5 5 4 3 6 5 5 7 2 4 2 2 4 3 2 2 1 2 3 1 0 1 0 1 1 2 3 5 6 7 9 10 10 12 13 14 15 17 17 18 19 20 19 19 19 19 19 20 19 18 18 18 19 19 18 18 18 19 18 17 16 15 14 13 13 12 11 10 10 10 10 10 10 10 9 9 9 9 8 8 9 10 9 9 9 8 7 5 6 8 8
Wind_Direction
140 145 147 188 222 264 240 247 214 176 155 88 85 98 83 70 96 109 111 118 120 112 99 115 123 108 41 40 74 80 52 45 34 44 89 113 133 133 128 127 128 130 129 129 130 126 121 120 127 143 136 120 129 131 111 107 105 101 107 111 114 115 113 115 111 106 108 111 111 106 103 99 95 91 88 86 83 82 82 83 86 91 93 92 91 92 91 91 91 91 92 94 95 96 97 100 103
150 149 161 216 232 263 256 238 233 124 112 90 79 82 96 107 109 99 95 98 97 112 128 123 114 77 31 65 77 93 75 51 56 78 95 121 126 125 130 130 129 130 127 127 127 122 121 121 127 143 132 123 133 124 108 108 108 105 110 115 117 118 117 116 112 110 115 115 111 107 105 100 98 95 90 88 85 83 82 83 86 90 91 91 91 90 91 91 90 90 90 92 94 96 97 100 103
169 151 195 256 240 246 263 228 217 104 100 89 86 85 106 112 100 91 88 86 96 120 131 122 107 79 99 119 66 62 87 63 82 98 112 129 127 129 133 130 128 127 124 125 124 120 123 124 129 136 129 129 132 118 111 111 108 108 113 120 119 117 119 116 113 115 119 115 111 111 106 101 100 96 92 89 87 86 84 83 85 89 90 90 88 87 88 88 89 90 90 91 92 95 97 100 102
184 221 251 282 249 225 252 221 103 89 92 92 95 89 95 99 98 95 98 96 109 133 136 132 110 63 35 81 63 70 91 76 93 110 125 134 130 134 135 130 128 125 124 124 122 123 128 131 132 134 131 129 128 119 115 113 108 108 116 123 121 119 118 113 114 118 118 113 114 114 108 106 104 98 94 92 89 87 87 85 84 87 89 89 86 84 84 85 86 87 89 91 91 93 95 97 98
193 261 272 282 270 250 277 229 77 81 78 83 100 94 92 92 103 106 114 118 130 145 142 144 102 102 74 54 36 71 89 94 106 117 122 122 126 134 134 130 129 125 125 125 125 126 131 134 131 132 131 130 133 127 120 117 111 111 121 125 124 124 120 115 117 119 115 114 115 113 110 109 105 99 95 93 92 89 89 88 86 85 85 86 85 83 82 84 85 86 87 89 91 91 91 93 93
231 263 249 256 278 319 271 129 87 88 63 54 99 100 97 97 105 110 124 128 135 147 148 140 87 122 106 64 50 50 59 105 118 122 121 123 129 133 132 132 129 126 129 129 126 124 128 130 129 130 131 134 138 133 124 119 116 119 126 126 127 128 124 120 118 117 115 114 112 111 111 108 104 101 98 96 96 92 89 89 88 86 86 85 83 82 81 81 83 84 84 86 91 92 91 91 92
304 283 227 235 225 248 229 99 87 96 69 36 92 104 102 104 111 122 134 135 141 150 160 143 99 119 103 97 82 60 59 101 119 120 122 128 131 131 132 134 129 130 133 125 119 123 129 129 128 129 128 130 133 130 124 119 120 129 130 127 128 127 122 120 118 116 116 113 109 108 108 106 103 101 100 101 99 95 91 89 88 87 87 86 83 81 80 80 80 82 81 83 89 91 91 92 92
309 298 235 257 205 193 109 92 82 87 92 69 84 96 105 111 120 132 132 131 146 153 169 160 139 104 96 111 85 77 79 95 112 116 122 129 130 131 133 135 132 135 130 121 125 130 130 129 128 127 127 125 124 125 122 122 128 136 134 130 128 124 121 118 117 115 113 109 107 106 106 105 104 102 102 102 100 98 93 89 88 88 87 86 84 81 80 80 80 82 80 80 83 85 88 91 91
292 269 243 261 192 131 105 101 94 87 103 105 96 102 113 120 119 119 116 107 131 146 148 147 171 98 108 101 91 97 95 102 114 119 127 129 131 132 134 138 136 135 124 125 134 128 125 130 132 131 131 125 122 124 123 126 135 139 133 133 131 126 125 119 117 114 109 109 107 105 103 101 104 107 106 105 102 99 95 89 87 88 88 86 85 84 82 80 81 82 80 80 81 82 86 88 89
260 232 265 264 182 124 118 110 107 104 105 107 108 123 131 131 123 101 108 106 122 130 114 128 144 112 117 104 99 104 105 118 123 124 130 130 132 132 133 137 135 133 126 130 132 123 127 133 133 132 131 127 122 122 123 125 132 139 132 134 135 128 123 121 118 111 110 112 109 106 102 102 107 109 108 108 103 98 94 87 83 89 91 89 88 86 82 81 81 82 82 81 81 82 83 86 87
228 190 271 259 170 124 116 115 116 112 113 121 117 128 141 142 138 110 110 107 115 121 117 170 136 114 115 101 93 102 116 130 129 128 132 131 133 133 133 134 134 133 128 130 127 126 133 133 132 131 132 133 129 123 120 121 132 141 131 131 134 127 120 119 118 111 110 111 108 106 104 106 109 108 108 107 101 96 92 86 81 87 94 94 92 87 84 82 82 83 83 81 80 80 80 81 82
247 164 239 240 123 102 108 116 117 117 128 144 133 140 157 154 145 115 118 115 116 119 112 157 130 127 123 106 101 118 129 135 130 132 134 134 134 133 134 134 135 132 130 131 127 130 135 136 136 134 140 142 134 126 120 119 135 141 127 127 131 127 120 116 116 114 113 109 106 106 104 106 107 106 106 104 97 91 89 87 82 86 94 98 97 91 86 84 84 84 83 82 80 80 81 82 82
281 250 253 232 70 99 117 113 120 135 141 134 123 139 170 172 151 109 110 109 98 82 77 94 137 137 113 106 117 131 136 134 133 136 137 137 135 135 136 135 137 134 134 132 128 132 135 136 137 140 146 142 130 127 124 120 132 144 131 128 130 125 119 117 116 114 114 110 107 108 106 104 104 103 102 99 95 91 89 87 85 87 95 99 100 95 89 86 84 84 85 84 84 86 86 84 81
299 306 283 212 100 122 113 113 139 153 126 114 114 139 172 178 139 116 104 101 75 54 82 110 138 128 115 121 135 140 139 137 139 140 139 138 135 137 136 137 140 137 137 135 131 133 137 137 136 146 147 137 128 126 126 123 127 142 136 128 124 123 124 123 118 114 115 112 111 113 109 106 105 102 99 97 96 94 88 86 86 89 97 102 102 99 92 89 87 88 90 89 90 92 92 88 81
305 297 276 197 136 144 105 107 149 153 115 122 129 146 164 138 149 152 82 75 78 90 113 119 120 111 139 149 152 142 139 142 143 141 139 138 136 136 136 140 143 142 143 141 137 137 142 142 140 150 150 139 132 127 125 126 124 129 139 129 121 125 130 128 122 123 121 111 109 110 107 108 107 101 99 99 97 94 88 86 87 89 98 104 103 102 98 93 90 90 92 94 94 94 90 84 79
298 278 260 188 149 158 142 154 157 139 114 124 133 150 153 126 162 145 54 27 105 127 139 122 84 14 146 147 137 136 139 143 143 141 139 137 137 137 139 145 146 146 148 146 143 142 145 146 146 152 152 143 134 128 123 126 129 134 149 136 126 129 133 134 129 125 120 112 109 108 106 108 108 102 99 98 94 93 92 88 86 88 96 104 106 105 104 100 95 93 95 96 94 89 79 70 69
270 254 249 176 149 119 128 139 115 134 117 121 140 162 150 132 153 125 139 205 120 130 127 108 85 36 108 121 127 133 139 142 143 143 141 142 144 145 147 151 152 152 154 154 150 146 145 147 147 149 153 146 138 132 124 129 134 137 146 137 132 133 133 133 126 117 112 111 113 110 107 108 107 103 99 97 90 86 87 87 86 88 93 102 106 106 105 103 100 98 96 95 93 82 70 62 52
255 246 233 140 94 77 51 52 68 175 145 128 144 164 152 142 150 149 171 162 123 129 120 117 96 76 100 116 128 135 141 145 148 150 148 152 154 154 155 158 161 158 158 158 156 151 147 147 147 148 153 149 144 138 131 134 132 134 141 139 138 135 131 129 126 123 114 112 111 107 109 109 105 103 101 99 94 90 88 88 86 86 90 95 99 101 102 103 101 97 93 91 84 65 70 74 37
276 280 232 74 51 67 46 34 46 22 126 130 140 145 152 147 151 168 182 149 144 137 120 137 119 106 116 126 134 138 145 151 155 157 156 159 161 160 158 160 165 163 163 161 160 158 152 153 153 152 157 155 149 143 138 138 135 137 144 146 144 137 133 132 134 137 131 126 118 112 115 110 106 108 107 104 100 97 92 90 88 85 87 91 94 92 92 96 94 88 78 68 56 51 76 118 73
322 293 291 73 60 79 62 38 43 25 103 143 140 131 140 145 153 169 184 153 158 142 119 143 137 131 135 138 141 143 151 156 160 163 161 163 164 163 159 161 167 166 168 163 161 161 157 159 158 158 160 161 158 148 143 140 141 144 147 150 147 140 136 133 134 136 133 131 127 122 116 108 108 111 109 105 101 98 92 90 86 83 82 84 86 85 82 81 78 69 43 35 42 43 73 127 75
360 333 29 67 62 84 65 38 47 41 183 160 141 146 144 143 170 164 168 153 139 144 127 133 143 144 144 146 149 150 155 159 164 168 164 166 166 164 162 163 164 164 169 165 162 162 161 162 162 164 164 169 170 158 149 143 144 148 149 149 145 141 135 130 129 128 123 119 118 115 113 111 113 114 111 107 106 105 102 98 91 88 85 78 77 83 84 74 79 78 39 31 45 302 345 20 37
34 41 45 56 20 55 62 48 55 90 147 165 157 161 131 138 193 174 176 119 64 58 110 111 138 147 149 150 153 154 158 162 166 169 168 167 166 166 160 160 160 160 167 168 166 164 164 167 167 168 174 178 179 169 154 145 146 148 150 146 143 141 135 132 128 125 119 113 113 113 115 117 118 115 111 109 109 107 105 106 103 100 95 81 73 75 70 61 72 78 63 52 35 360 18 3 341
24 81 69 48 31 52 65 71 92 156 151 158 162 138 130 155 185 180 199 109 54 28 93 110 133 146 150 150 156 159 160 165 167 169 170 167 165 166 160 159 160 161 168 170 169 168 169 171 170 172 181 182 185 183 159 149 150 149 152 148 146 144 139 136 130 127 122 115 115 117 121 122 121 118 112 112 112 109 107 107 104 101 95 84 76 71 61 53 56 57 53 46 32 19 33 30 353
30 82 87 60 56 69 74 82 98 127 123 125 147 171 171 186 139 152 200 121 87 90 106 117 131 143 150 151 159 160 160 167 167 167 166 164 163 161 159 158 160 162 167 171 170 172 175 174 173 175 179 183 190 188 165 155 152 149 155 153 148 145 142 139 133 132 126 120 118 118 123 126 125 121 118 117 113 109 108 107 105 101 95 87 81 75 66 59 57 56 50 42 36 27 37 52 47
57 80 98 87 77 76 86 89 87 100 101 119 164 194 182 193 136 146 181 125 110 122 121 127 137 146 153 155 159 158 161 166 164 163 161 160 159 158 158 158 160 162 165 170 171 175 178 176 176 178 178 184 191 187 172 161 156 155 159 157 156 151 144 139 136 137 132 125 121 117 123 129 128 123 121 117 111 107 105 106 103 98 93 91 88 80 72 64 60 59 48 41 39 32 44 56 54
64 88 111 108 100 81 92 103 83 90 92 137 165 160 32 211 227 164 151 139 125 131 135 135 143 152 156 157 159 158 163 165 162 160 158 157 158 162 161 158 162 163 164 167 169 172 174 176 180 183 181 184 190 188 178 165 160 161 160 161 161 154 147 142 140 139 134 128 124 118 121 130 132 125 121 114 109 106 102 100 99 100 96 91 87 80 73 63 59 55 43 37 36 32 44 52 55
84 109 111 104 108 98 94 105 93 99 82 73 137 125 333 238 216 171 145 157 143 142 143 141 148 156 158 158 157 161 163 164 164 161 160 159 161 170 166 162 165 162 163 166 167 169 170 178 182 182 182 181 187 189 181 170 164 163 161 164 164 156 149 142 140 135 130 128 126 120 118 128 133 127 122 117 113 106 102 100 97 100 95 85 79 74 67 57 54 47 35 28 26 29 44 52 59
105 131 132 126 137 115 106 107 90 177 100 50 134 152 181 214 200 169 171 166 154 150 146 148 154 154 158 159 155 163 166 164 169 167 165 163 165 172 169 168 167 161 167 168 166 170 173 179 179 179 182 180 185 186 182 177 168 165 163 165 164 156 151 143 139 133 129 130 129 124 123 128 130 127 122 117 114 106 104 105 99 94 88 78 64 60 57 53 52 46 35 24 22 30 48 57 68
126 189 210 151 171 135 89 102 58 234 158 30 197 178 183 189 167 141 157 164 159 157 153 154 157 154 159 160 157 164 166 166 175 176 166 162 164 171 170 169 167 162 168 170 168 175 174 176 175 178 183 181 184 183 181 181 170 167 166 164 163 157 153 144 136 134 132 135 134 130 128 128 130 129 119 115 116 111 106 105 102 92 77 68 54 48 49 49 47 45 37 33 35 37 51 59 75
170 234 290 219 183 133 81 98 27 216 147 351 258 228 184 169 151 131 150 165 162 161 161 160 159 159 163 164 165 166 169 173 177 179 169 165 167 170 169 168 170 164 164 171 175 177 172 172 174 178 183 182 185 182 178 180 172 168 163 161 163 160 153 144 136 137 139 141 140 136 133 132 133 128 118 115 117 118 114 108 102 88 68 59 51 40 40 45 40 38 33 36 41 38 52 60 65
230 270 273 295 337 85 85 66 339 187 138 270 253 266 164 142 141 143 156 168 166 167 166 164 161 162 166 167 172 169 172 180 180 179 175 175 175 171 169 170 174 166 163 173 176 176 174 172 174 176 180 182 183 180 176 178 175 170 164 160 164 160 150 146 144 145 146 146 145 142 140 139 134 124 118 117 116 121 123 115 99 80 63 50 45 35 34 37 33 34 27 28 37 32 48 69 73
250 280 230 24 14 97 103 68 360 7 105 213 237 273 167 138 135 142 161 177 174 176 169 167 165 164 168 170 175 174 172 178 184 184 177 180 179 170 170 171 175 171 166 171 171 175 174 171 172 172 175 177 178 177 176 177 176 172 164 158 160 160 155 155 155 152 150 152 152 151 149 146 139 127 122 122 121 122 123 114 100 78 60 42 35 30 29 31 27 30 25 22 27 23 30 61 78
185 264 297 19 345 20 112 100 52 348 302 214 216 261 215 127 124 131 155 182 183 182 173 170 167 165 171 173 175 176 174 176 184 187 178 180 179 170 171 169 174 175 168 167 167 172 171 167 169 169 169 171 171 173 173 173 176 171 160 156 161 165 166 163 158 154 154 157 158 157 154 151 147 137 129 128 128 126 115 107 96 79 56 38 28 16 19 24 17 22 22 17 17 14 20 39 54
159 204 276 295 328 337 23 101 81 329 282 243 223 256 284 126 137 134 157 180 189 186 176 172 169 170 173 177 179 176 177 179 180 183 179 179 175 169 169 166 171 172 168 166 165 168 167 163 164 164 166 167 167 169 170 169 171 166 158 160 164 170 172 165 160 158 161 164 161 159 157 158 156 145 137 131 132 131 112 97 83 70 50 36 26 9 12 10 8 13 15 12 8 6 11 22 30
22 332 313 306 317 340 8 38 54 313 272 263 246 255 264 164 145 133 164 178 191 191 182 175 174 176 176 181 186 178 180 178 172 177 178 177 173 170 167 164 167 168 168 163 160 164 164 162 160 160 164 165 165 166 166 164 164 163 164 166 168 174 176 169 164 163 166 168 163 160 160 163 161 152 143 135 139 152 131 104 74 64 49 38 21 5 12 2 3 4 7 5 358 357 360 6 17
318 315 312 315 313 335 25 27 35 332 280 263 263 269 272 219 171 153 164 175 193 199 191 183 180 183 183 187 190 183 186 178 165 170 175 176 173 169 165 163 165 166 165 159 157 163 163 162 160 159 162 163 162 164 164 163 164 168 169 170 171 176 179 174 171 168 170 170 163 162 163 164 162 153 145 139 140 148 144 117 82 65 51 44 29 19 17 17 3 356 4 358 343 343 346 345 1
292 295 293 297 300 340 69 72 64 330 285 274 288 285 278 244 197 169 162 173 192 203 198 191 189 191 191 192 189 185 188 182 167 166 172 178 174 168 164 164 165 163 163 162 162 164 164 165 164 160 161 162 164 165 165 166 168 170 171 174 175 176 179 177 175 174 172 170 163 163 165 167 165 158 152 150 148 145 146 131 97 73 51 51 51 40 22 28 358 346 355 335 318 330 331 326 355
269 277 284 280 282 24 87 85 78 296 277 302 325 283 264 240 216 185 179 190 197 201 201 196 194 196 199 200 195 188 187 185 175 168 174 180 175 170 166 166 169 164 166 169 168 166 165 168 167 163 162 164 168 166 165 168 170 172 173 176 177 175 177 179 178 177 175 171 168 167 169 171 170 168 163 159 157 156 157 147 120 90 65 62 62 65 95 84 342 345 350 322 307 307 299 318 353
259 260 269 271 285 88 113 147 147 165 275 318 332 295 268 229 220 201 195 203 205 204 206 203 198 199 203 204 201 196 192 188 184 178 179 181 175 172 170 170 172 168 169 173 171 167 167 169 169 168 167 167 171 169 167 170 171 175 175 176 180 175 175 179 176 175 177 172 171 174 175 176 179 182 183 177 174 173 165 152 142 121 87 81 79 75 115 158 202 354 349 337 316 284 259 282 350
250 252 258 268 74 288 275 157 166 189 267 308 311 289 262 214 214 211 204 204 206 210 216 215 211 208 208 206 202 201 197 191 193 189 181 179 175 175 176 173 172 170 171 174 174 171 171 171 171 172 172 172 172 171 172 171 170 174 175 175 176 167 166 172 169 171 180 176 173 177 180 184 190 195 200 201 205 193 168 166 119 64 78 70 91 148 173 173 164 202 242 4 311 286 275 299 335
235 236 250 274 280 279 309 128 161 201 200 265 299 282 233 185 204 209 198 199 206 210 216 219 218 217 216 214 207 204 202 196 199 197 184 179 177 178 179 176 174 173 174 177 177 175 173 172 172 173 176 176 174 173 174 170 168 173 172 169 168 159 161 170 175 176 182 185 185 186 184 189 196 203 211 216 223 221 197 240 315 319 318 314 285 260 229 193 190 196 158 125 298 302 309 311 305
236 217 232 265 279 272 260 159 189 247 198 131 310 305 90 141 190 204 187 192 205 212 217 216 214 215 217 221 215 209 206 200 202 201 188 181 181 179 179 180 179 176 176 178 178 177 174 170 171 173 176 179 177 175 175 171 169 173 171 170 173 170 168 176 183 182 183 190 195 192 189 191 196 206 213 216 220 218 227 256 279 290 295 276 270 277 259 233 214 185 142 166 181 36 315 303 293
249 173 195 252 265 257 224 205 244 293 360 94 306 314 341 120 151 170 175 189 202 209 219 219 212 211 212 217 218 213 210 202 200 201 193 187 185 181 180 184 184 179 176 176 177 177 174 170 171 173 175 179 179 175 175 174 173 174 175 176 178 178 177 180 186 188 187 190 195 194 194 192 195 206 208 205 213 217 228 245 254 267 271 263 258 258 254 243 217 166 117 209 313 60 294 288 277
269 88 132 209 224 229 219 235 266 311 350 164 185 294 299 321 104 133 162 187 207 212 217 220 215 212 210 211 215 215 213 206 198 197 195 192 190 186 184 185 185 181 176 175 175 175 174 172 172 173 174 177 178 177 177 178 177 176 178 179 180 183 184 181 184 190 188 189 195 196 196 193 191 203 209 205 209 216 226 236 240 246 253 259 257 248 246 242 231 186 166 214 237 236 255 268 274
35 87 184 195 215 213 207 245 272 308 290 252 141 283 287 328 90 127 158 178 210 224 225 221 215 213 213 212 213 214 212 208 202 197 195 193 193 192 188 184 184 182 177 176 176 174 174 174 174 175 176 175 176 177 179 181 180 178 180 180 179 184 186 181 184 191 193 195 198 197 199 199 195 202 211 212 212 215 222 227 230 233 240 247 249 248 243 231 232 222 212 222 223 225 248 265 271
115 148 189 170 191 196 210 250 270 270 274 302 22 317 307 340 116 146 172 185 206 221 227 227 220 214 213 215 215 212 208 207 207 200 195 195 195 194 189 184 184 181 177 177 176 174 174 174 177 179 178 177 176 177 180 182 181 181 183 184 181 181 181 180 184 190 194 197 198 198 201 209 212 210 208 210 214 216 218 223 228 228 235 242 245 250 250 235 228 223 222 226 228 233 248 261 269
141 176 185 169 181 192 222 259 284 268 258 17 10 328 313 311 101 119 153 183 202 205 209 223 227 219 211 213 216 214 207 203 207 206 198 195 194 193 190 186 183 181 179 179 178 177 176 175 178 182 181 180 178 178 181 184 185 185 187 188 186 185 184 184 186 189 190 194 200 204 206 211 218 218 211 207 210 212 214 218 226 229 234 240 242 248 246 238 229 225 223 224 231 241 254 264 271
171 189 189 187 183 201 236 247 262 266 272 58 1 329 290 271 40 61 102 137 180 189 192 204 214 218 212 210 213 215 211 201 202 209 203 191 188 190 191 189 184 181 181 183 181 179 178 178 179 182 185 183 180 181 183 185 188 190 191 192 191 191 191 190 189 190 191 196 204 208 210 211 216 218 217 214 212 211 209 213 223 230 235 238 242 247 247 246 243 238 233 232 237 239 250 264 270
198 202 203 224 218 224 252 250 246 260 49 57 357 325 279 263 333 354 57 135 165 171 190 196 200 210 213 211 214 213 213 207 200 205 206 193 186 189 190 188 185 185 185 186 185 181 180 181 181 183 187 187 184 184 185 188 191 194 194 195 194 194 194 193 192 194 195 199 203 205 205 206 211 215 218 218 218 214 209 213 221 226 230 235 243 250 250 252 251 248 248 244 247 251 253 262 271
211 206 214 247 261 259 262 261 255 264 96 82 18 290 269 251 201 344 56 91 105 133 188 198 193 210 211 204 206 209 214 215 204 202 204 196 190 191 189 186 186 188 188 188 188 185 182 183 184 185 187 189 188 187 188 190 192 195 196 196 195 194 194 195 198 200 200 199 200 202 203 204 205 209 214 216 218 218 214 212 216 221 227 231 237 244 244 246 247 251 255 252 254 261 262 267 274
215 221 236 258 283 281 280 291 291 305 24 142 184 241 288 301 161 146 109 103 102 113 148 179 186 204 203 193 195 203 215 221 213 204 204 200 196 194 191 188 189 191 191 190 189 188 186 185 186 187 187 188 190 191 192 193 194 195 196 197 197 195 195 198 201 204 204 202 202 202 203 208 206 203 207 210 212 217 217 213 214 221 227 232 236 240 241 239 240 247 254 258 261 263 264 270 274
199 229 246 269 307 281 279 298 307 317 298 231 199 243 298 324 157 155 149 153 154 142 137 166 185 181 184 195 197 200 214 231 228 210 205 204 199 198 195 192 192 193 193 192 191 189 190 188 188 190 190 189 190 192 194 196 197 197 196 197 198 197 199 200 201 204 206 207 208 206 205 210 213 206 205 210 211 212 215 215 220 224 225 232 238 240 244 242 239 246 252 256 262 263 263 268 272
174 216 241 323 348 287 278 274 268 285 276 249 215 268 269 230 190 164 168 196 176 164 159 162 173 178 186 197 195 191 202 226 234 221 212 207 199 199 200 197 195 195 194 194 193 191 191 189 189 191 192 192 191 192 195 197 199 200 199 199 200 200 203 205 205 205 205 206 208 211 211 210 213 214 213 214 210 208 214 216 223 227 222 229 238 241 244 242 239 246 249 252 259 264 265 263 267
228 223 178 108 26 269 275 269 245 250 261 241 180 287 296 280 219 158 165 184 156 155 160 155 161 179 192 191 183 184 190 210 231 230 221 211 201 200 202 202 201 199 196 196 194 193 193 192 191 191 193 195 194 193 196 197 199 202 202 202 203 204 207 209 210 208 207 207 207 210 214 211 212 216 216 215 208 207 211 214 222 227 225 229 238 241 242 237 238 244 247 250 253 256 260 261 263
279 302 148 196 253 237 212 259 272 262 273 279 168 267 283 265 268 107 145 132 129 142 149 158 166 170 182 183 172 175 181 191 214 224 221 216 207 203 204 207 207 203 201 198 192 192 198 199 197 196 195 196 197 196 197 198 199 202 204 204 205 206 209 211 212 211 210 210 210 209 211 211 213 215 212 213 216 216 212 212 218 223 226 229 231 235 235 230 234 243 248 252 250 245 249 259 265
245 266 217 235 281 298 243 250 272 276 285 295 286 262 248 217 356 359 64 93 110 139 150 166 168 148 157 166 159 169 181 189 194 195 206 223 219 211 208 208 209 205 203 200 193 194 202 203 202 203 200 197 199 200 199 200 201 203 204 205 206 207 209 211 211 211 212 213 214 213 211 210 212 214 212 212 220 225 222 220 222 224 226 227 227 230 229 223 229 239 249 259 262 256 252 259 265
213 227 219 219 241 280 279 247 244 273 288 290 282 281 293 83 43 21 92 102 105 124 152 162 155 149 132 101 111 162 186 199 198 193 197 211 221 222 214 207 206 205 201 200 198 197 199 202 205 208 206 202 201 202 202 203 204 205 205 206 207 207 209 211 209 210 213 214 214 214 213 212 213 216 216 216 220 225 226 228 230 232 232 230 227 229 232 232 231 234 244 255 261 262 262 272 281
246 242 238 231 226 243 262 246 219 247 281 288 287 285 312 78 67 72 91 102 115 120 180 159 141 147 72 59 358 314 285 248 231 210 200 201 210 221 221 209 203 203 202 202 201 196 194 198 203 206 209 210 206 203 202 203 205 208 209 208 208 208 208 211 211 211 212 214 213 212 212 213 215 217 219 221 223 224 224 227 231 235 236 236 235 235 237 236 233 233 242 252 259 259 256 268 286
Height
784 785 785 784 783 783 781 782 790 781 776 794 794 796 800 791 789 793 797 797 795 792 785 785 784 787 793 794 795 797 797 803 807 811 820 813 806 811 811 813 814 815 817 818 819 820 822 823 823 820 821 823 823 823 824 827 828 829 829 829 829 830 830 831 831 831 830 830 830 831 831 832 832 833 834 834 834 833 832 832 832 831 831 831 831 831 832 832 831 832 832 832 833 834 834 834 835
785 785 784 784 782 784 781 779 791 784 784 802 798 797 798 789 792 796 798 795 792 788 782 783 785 789 790 788 788 794 799 799 798 801 806 805 808 812 812 815 815 816 818 819 820 821 823 824 824 821 821 823 823 825 826 828 829 829 829 830 830 831 831 832 832 832 831 831 831 831 831 832 832 833 834 835 835 835 834 834 833 832 832 832 832 833 833 833 833 832 833 833 834 835 835 835 835
786 785 784 785 782 780 778 780 790 789 794 807 805 797 792 793 797 796 795 791 786 783 783 785 788 791 791 794 793 797 803 798 795 799 803 806 809 811 814 815 816 818 818 820 821 822 824 824 825 823 823 824 825 826 828 829 829 830 830 830 831 832 832 832 833 833 832 832 832 831 831 832 833 834 835 836 836 836 836 835 834 834 833 833 834 834 834 834 834 834 834 834 835 836 836 837 837
785 785 784 783 782 780 779 782 784 787 797 805 808 799 791 796 796 795 792 788 784 782 786 788 792 792 792 800 796 796 802 799 798 800 804 807 808 812 815 815 817 818 819 821 822 823 824 825 826 826 826 827 827 828 829 830 830 830 830 830 831 832 833 833 833 833 833 833 833 832 832 833 834 834 835 836 837 837 837 836 836 835 835 835 834 835 834 834 835 835 835 836 836 837 837 838 838
785 785 783 783 785 783 781 782 779 788 799 799 806 802 792 794 793 795 791 787 785 785 788 788 795 792 790 797 793 798 803 800 800 800 803 807 809 813 814 816 818 818 820 821 822 824 825 826 827 828 828 828 829 829 830 830 830 830 830 830 831 832 833 834 834 834 834 835 834 833 834 834 835 835 835 836 837 837 838 837 837 836 836 836 835 835 835 836 836 836 837 837 837 838 838 838 839
785 784 782 782 781 780 785 787 786 796 800 793 801 801 792 792 792 794 790 788 785 784 786 787 793 792 795 796 792 798 800 800 802 801 804 808 811 814 815 817 817 818 820 820 822 824 825 826 827 828 829 829 829 830 831 831 831 830 830 831 832 833 833 834 835 835 835 835 835 835 835 835 836 835 836 837 838 838 838 838 838 837 837 837 837 837 836 837 837 837 838 838 839 839 839 840 840
784 785 783 784 781 779 788 791 792 799 799 791 795 797 792 793 792 793 792 792 790 786 786 788 787 793 803 797 796 799 798 800 800 803 806 809 813 814 816 817 817 819 819 821 823 824 826 826 827 828 828 829 830 830 831 832 832 830 831 832 833 833 834 834 835 836 836 835 835 836 836 836 836 836 837 837 838 839 839 839 838 838 838 838 838 838 837 838 838 839 839 839 840 840 840 841 841
785 786 781 788 787 782 788 793 795 797 797 792 791 793 793 793 791 793 793 792 794 791 789 789 785 798 806 795 802 803 799 802 801 806 808 810 814 815 817 817 818 819 821 824 824 824 825 826 827 828 828 830 830 831 832 833 832 830 831 833 834 834 834 835 835 836 836 836 836 836 837 837 837 837 838 838 839 839 839 839 839 839 839 839 839 839 839 839 839 840 840 840 841 841 841 842 842
785 786 782 789 790 788 793 797 800 797 796 793 792 794 792 792 791 793 794 792 792 791 791 789 787 801 804 798 806 803 800 806 805 809 810 812 814 815 817 816 818 819 823 824 824 826 826 827 827 827 828 829 831 832 832 833 832 830 832 833 833 834 834 835 835 836 836 836 836 837 837 838 838 838 839 839 840 840 840 839 839 840 839 840 840 840 841 840 840 840 841 841 842 842 842 843 843
785 785 785 788 788 794 800 799 801 799 797 794 793 794 793 792 792 793 795 794 791 791 792 787 790 798 801 803 807 802 804 807 807 810 811 814 815 816 817 817 819 820 823 824 825 826 827 828 827 828 829 830 832 832 833 833 833 831 833 834 834 834 835 836 836 837 836 837 837 837 838 838 839 839 839 840 840 840 840 840 840 840 840 841 841 841 842 841 842 841 842 842 842 842 843 844 844
788 783 784 790 790 797 802 800 801 799 796 794 794 793 791 791 792 794 794 795 791 792 792 789 795 797 800 806 807 804 806 807 808 811 812 814 816 817 817 818 821 822 824 824 826 827 827 828 828 829 829 831 832 833 834 834 833 833 834 835 835 835 835 836 837 838 837 838 838 838 839 839 839 840 840 840 841 841 841 841 840 840 840 841 842 842 842 843 843 843 843 842 843 843 843 844 844
790 785 785 793 792 793 797 799 801 800 799 796 797 793 789 790 794 796 796 796 792 793 792 792 794 794 802 809 807 806 806 808 810 811 814 815 816 817 818 820 821 823 825 825 826 827 828 828 829 830 830 831 832 833 834 834 834 833 836 836 835 835 835 836 837 838 838 838 838 839 840 840 840 840 841 841 841 842 842 841 841 841 841 842 842 843 843 844 844 844 844 843 843 844 844 845 845
789 786 787 792 788 790 794 798 802 801 801 797 796 793 789 792 795 794 794 794 792 796 793 789 789 790 804 809 805 805 806 809 810 813 814 815 817 818 819 820 822 824 825 826 827 827 828 829 830 831 830 832 833 834 835 835 833 834 836 836 836 836 835 836 837 838 838 838 839 839 840 840 841 841 841 841 842 842 842 842 842 843 843 843 843 843 844 844 845 845 845 845 845 845 845 845 846
785 784 786 790 788 790 793 799 803 801 802 796 794 792 790 793 793 790 792 797 797 796 792 785 785 794 805 808 809 806 806 810 811 814 814 816 818 818 820 821 823 824 825 827 827 828 829 830 831 831 831 832 834 835 836 836 834 833 836 837 837 836 836 837 838 838 838 839 839 840 840 841 841 841 842 842 843 843 843 843 843 844 844 845 845 844 845 845 846 846 846 846 846 846 846 846 846
783 782 784 788 790 792 794 799 798 798 800 796 793 792 793 792 789 791 792 798 799 789 787 786 785 797 803 806 810 804 805 810 811 814 815 817 818 819 821 821 823 824 826 827 828 829 829 830 831 831 831 833 834 835 837 837 835 834 835 838 838 837 837 838 839 840 839 839 839 840 841 841 841 841 842 843 843 843 843 844 844 845 845 846 846 846 846 846 846 847 847 847 847 847 847 847 847
778 781 784 789 794 796 796 796 795 800 799 793 792 790 796 795 787 794 791 790 795 787 787 791 788 794 797 797 802 800 805 810 811 815 815 817 819 820 821 822 824 824 826 827 828 829 829 831 831 831 832 833 835 836 837 838 838 836 836 838 839 840 838 838 840 842 841 841 841 842 841 841 842 842 843 843 843 844 844 844 845 845 846 846 847 847 847 847 847 848 848 848 848 848 848 848 848
778 784 789 791 794 796 795 793 799 805 798 793 793 790 798 800 790 791 787 783 792 792 790 791 789 789 791 793 796 800 807 810 812 814 815 818 818 819 821 822 823 824 826 827 828 829 830 831 831 832 832 834 835 836 838 838 839 839 838 838 840 841 840 840 840 842 843 843 843 843 842 842 842 843 843 844 844 844 844 844 845 845 846 847 848 848 848 848 848 848 849 849 849 849 849 848 848
782 787 790 793 793 794 794 792 794 796 794 794 794 791 795 800 796 790 789 790 792 794 793 791 791 790 790 794 798 802 807 809 812 813 814 816 817 818 819 821 822 824 825 827 828 829 830 831 831 832 833 834 836 837 838 839 839 839 840 840 841 842 843 843 843 844 844 844 844 843 843 843 843 844 844 844 844 844 844 844 845 845 846 847 848 849 849 849 849 849 849 849 850 850 849 849 849
786 788 788 795 795 792 791 790 790 790 791 793 792 791 792 796 795 790 795 799 795 797 798 795 796 796 795 797 800 804 807 809 811 811 813 815 816 817 818 820 822 823 824 826 828 829 830 831 831 832 833 834 836 837 838 839 840 840 841 841 842 843 844 846 846 847 847 847 846 845 845 844 844 844 844 845 845 845 845 845 845 846 846 847 848 849 849 850 850 850 850 850 850 849 849 850 850
785 788 791 795 793 791 790 790 792 790 788 791 792 791 792 792 789 790 797 800 797 799 799 798 801 800 799 799 800 804 806 808 810 810 812 814 815 816 817 820 821 823 824 825 827 829 830 831 832 832 833 834 836 837 838 839 840 840 841 841 842 842 843 845 847 847 848 848 847 846 845 844 845 845 845 846 846 847 847 846 846 846 847 847 848 849 850 850 850 850 850 850 849 850 850 850 850
784 788 794 794 790 793 794 791 791 789 787 789 791 792 793 790 786 790 796 801 803 798 793 794 798 798 799 799 800 803 805 807 809 810 811 813 815 815 817 819 820 822 823 825 827 828 830 831 832 832 833 834 835 837 838 839 840 841 841 841 842 842 843 844 845 846 846 846 846 846 845 845 846 846 847 847 848 848 848 848 848 848 848 848 848 849 850 850 850 851 850 850 850 850 850 850 850
787 791 793 792 790 796 795 791 792 790 788 789 791 793 792 789 789 791 794 802 804 794 788 788 790 793 796 797 799 801 804 806 808 809 810 812 814 815 816 818 820 822 824 825 826 828 830 831 831 832 833 834 835 837 838 839 840 840 840 841 842 842 843 843 844 845 845 845 845 845 845 846 846 847 848 848 848 849 849 849 849 849 849 849 849 849 850 850 850 850 850 850 850 849 849 849 849
791 795 791 792 791 796 795 791 792 790 790 794 793 790 787 792 795 791 792 798 796 787 784 785 787 790 793 796 798 800 803 805 806 808 810 811 813 815 816 818 820 822 824 825 826 828 829 830 832 832 833 833 835 837 838 839 839 840 841 841 841 842 843 843 844 844 844 845 845 846 846 846 847 848 849 849 849 849 850 850 850 850 850 850 850 849 850 849 850 850 850 850 850 849 849 849 848
790 797 794 794 793 795 794 791 791 790 793 794 790 789 790 796 796 792 793 792 789 785 782 785 787 789 793 796 798 800 802 803 804 807 808 810 812 814 816 818 819 821 823 824 826 827 829 830 831 832 833 834 835 836 837 838 839 840 840 841 841 842 843 843 844 844 845 845 845 846 847 847 848 848 849 850 850 850 851 851 851 851 851 851 850 850 850 850 850 850 850 850 850 849 848 848 848
791 798 797 795 795 794 791 790 791 791 793 792 791 794 794 793 792 793 794 790 786 784 784 786 789 791 794 796 798 799 801 802 803 805 807 809 811 814 816 817 819 821 822 823 825 826 828 829 831 832 833 834 834 835 837 838 839 840 840 841 841 842 843 844 844 845 845 845 846 847 848 848 849 849 850 850 851 851 851 851 851 851 851 851 851 851 851 851 850 850 850 850 849 849 848 848 848
792 794 796 795 797 795 792 793 793 793 793 792 796 800 797 791 790 795 793 788 786 784 786 788 790 794 795 796 798 799 800 801 803 804 807 809 811 813 815 817 818 819 821 822 824 825 827 829 830 831 832 833 834 835 836 837 839 840 841 841 841 842 844 844 845 845 845 846 847 847 848 849 849 850 851 851 852 852 852 852 852 852 852 852 852 852 852 851 851 850 850 850 849 849 848 848 848
789 791 794 794 796 794 794 795 794 793 792 793 800 806 802 793 795 804 795 786 786 786 790 790 792 796 796 796 797 798 800 801 803 804 806 809 811 813 814 816 817 818 820 822 823 825 827 828 829 831 832 833 833 834 835 837 839 840 841 841 842 842 843 844 844 845 846 846 847 848 848 849 850 851 851 852 852 852 852 852 852 852 852 853 852 852 852 852 851 851 850 850 850 849 848 848 847
787 791 795 795 795 795 794 796 795 794 795 793 797 806 805 797 800 806 795 785 786 789 792 792 793 796 796 797 797 799 800 801 803 804 805 808 809 811 812 814 816 817 819 821 823 824 826 827 829 830 831 833 833 834 835 836 838 839 841 841 842 842 843 844 845 845 845 846 847 848 849 850 851 851 852 853 853 853 853 853 853 853 853 853 853 853 853 853 852 852 851 851 850 848 848 847 847
788 790 797 798 795 798 797 796 795 795 797 791 793 807 809 804 802 796 789 786 786 789 793 793 794 795 796 797 798 799 800 801 804 803 805 806 808 810 811 813 815 817 819 820 822 824 825 827 828 830 831 832 833 834 835 836 837 839 840 841 841 842 843 844 844 845 845 847 847 848 849 850 851 852 852 853 853 853 853 853 853 854 854 854 854 854 853 853 853 852 852 851 850 848 847 847 846
792 790 795 797 798 803 798 796 795 795 797 790 795 813 811 803 800 791 786 786 787 792 794 793 794 795 796 797 798 799 800 801 803 803 805 806 808 809 810 813 814 816 818 820 822 823 825 826 828 829 831 832 832 834 835 835 837 838 840 841 841 841 842 843 844 846 846 847 848 848 849 850 851 852 853 853 853 853 854 854 854 854 854 854 854 854 854 853 853 853 852 851 850 849 848 848 847
792 794 796 795 803 808 798 795 796 798 797 788 797 816 813 805 798 790 787 785 788 794 794 793 793 795 796 797 798 799 799 800 802 803 805 806 807 808 810 812 813 815 817 819 821 822 824 825 827 828 830 831 832 833 834 835 836 837 839 840 841 842 842 844 845 846 847 848 849 849 850 851 852 852 853 853 854 854 854 854 855 855 855 855 855 855 854 854 854 853 853 852 851 850 848 848 848
791 801 804 797 803 807 800 797 796 799 798 788 801 818 816 809 798 790 788 785 788 793 793 793 793 795 796 796 797 798 798 799 801 802 804 805 806 808 809 811 813 814 816 818 820 822 823 824 826 827 829 830 831 832 834 834 835 837 839 840 841 842 843 844 845 846 847 848 849 850 851 851 852 852 853 853 854 854 854 854 855 855 855 855 855 855 855 854 854 854 854 853 852 851 849 848 848
792 801 807 803 802 802 801 801 795 796 799 793 803 813 811 810 800 790 789 788 790 793 794 793 793 794 795 796 796 797 798 798 799 801 802 804 806 807 809 811 813 814 815 817 819 821 822 823 825 826 828 830 831 832 833 834 835 836 838 840 841 842 843 844 845 846 847 848 849 850 851 852 852 852 853 853 854 854 854 855 855 855 856 856 856 856 855 855 855 854 854 854 853 852 850 849 848
795 798 802 802 801 800 802 805 798 795 800 798 799 802 802 804 799 792 791 791 792 793 794 793 793 794 794 795 795 796 798 799 798 799 801 803 805 807 809 810 812 813 815 817 818 820 821 823 824 826 827 829 831 832 833 834 835 836 838 840 841 842 843 844 845 846 847 848 849 850 851 852 852 853 853 854 854 855 855 855 855 856 856 856 856 856 856 856 856 855 855 854 854 853 852 850 849
800 802 802 801 798 798 802 805 801 797 801 801 800 801 798 797 795 794 792 792 794 794 792 792 792 793 794 795 795 795 797 798 797 797 799 802 804 806 808 810 812 813 815 816 818 819 820 822 824 825 827 828 830 832 833 834 835 836 838 839 841 842 843 844 845 846 847 848 849 850 851 851 852 853 853 854 854 855 855 855 855 856 856 856 856 856 856 856 856 856 855 855 855 854 853 851 851
800 801 802 804 800 798 801 803 800 798 803 801 799 801 798 796 796 796 793 792 796 795 791 792 793 794 794 795 795 795 796 796 795 796 798 801 803 806 807 809 811 813 814 816 818 819 820 822 823 825 826 828 830 831 832 834 835 836 837 839 840 841 843 844 845 846 846 847 848 849 850 851 852 852 853 854 855 855 855 855 855 856 856 856 856 856 856 857 857 857 856 856 856 854 853 852 851
796 799 800 801 800 801 803 803 799 798 804 802 797 800 799 797 795 795 794 794 797 798 795 794 794 795 794 794 794 794 795 794 793 795 798 800 802 804 807 809 811 812 814 816 817 819 820 821 823 824 826 827 829 830 832 833 834 835 836 838 839 840 842 843 844 845 846 847 848 849 850 851 851 852 853 854 855 855 855 856 856 856 856 856 857 857 857 857 857 857 857 857 856 855 854 852 852
795 798 799 797 796 800 803 803 799 798 804 801 796 802 801 797 795 793 794 796 797 796 795 795 794 795 793 793 793 793 793 792 792 795 797 799 802 803 806 808 810 811 813 815 816 818 820 821 822 823 825 827 828 829 831 832 833 835 835 836 838 839 841 842 843 844 845 846 847 848 849 850 851 852 853 853 854 855 855 856 856 856 856 857 857 857 857 857 857 857 857 857 856 855 854 853 853
794 794 797 797 793 798 804 803 799 798 804 801 796 801 799 794 793 792 793 795 793 790 790 791 792 794 793 792 793 792 793 793 793 794 795 798 800 802 805 807 809 811 812 815 816 817 819 820 822 823 825 826 828 829 830 832 833 834 835 836 837 838 840 841 842 844 845 846 847 848 849 850 851 852 852 853 854 854 855 856 856 856 856 857 857 857 857 857 857 857 857 857 856 855 853 853 853
792 792 795 795 792 799 805 804 801 799 801 802 800 799 795 792 793 792 791 791 791 789 788 788 788 790 790 788 789 791 792 794 794 793 793 795 799 801 803 805 808 809 811 813 815 817 818 820 821 823 824 826 827 829 830 831 833 834 835 836 837 838 839 841 842 844 845 845 847 848 849 850 850 851 852 852 853 854 854 855 855 856 856 856 856 857 857 856 857 857 857 857 857 855 853 853 854
789 788 791 791 790 794 798 800 802 800 799 800 800 798 791 790 796 795 790 790 792 792 791 790 788 786 786 785 786 787 789 791 793 792 792 793 796 799 802 804 806 808 810 812 813 815 817 819 821 822 824 825 827 828 829 831 832 834 835 836 838 838 839 841 842 843 844 845 846 847 848 849 850 851 851 852 853 853 854 854 855 855 855 856 856 856 856 856 856 856 856 857 857 856 854 854 854
786 783 784 784 786 790 794 798 801 802 805 802 801 807 799 789 794 795 790 792 795 793 791 791 789 787 787 787 786 786 786 787 789 790 790 792 794 798 801 803 804 806 808 810 812 814 816 818 820 822 824 825 826 827 829 830 831 833 834 835 837 838 839 840 841 842 843 845 845 846 848 849 849 851 851 852 852 853 853 853 854 854 855 855 855 856 856 855 855 856 856 857 856 856 856 855 854
789 781 777 780 783 788 794 797 800 804 808 804 801 811 808 791 790 793 791 796 797 793 792 789 787 787 787 787 786 785 785 784 786 787 788 791 793 796 799 801 803 805 806 809 811 813 815 817 819 821 823 824 826 827 828 830 831 832 833 834 835 837 838 839 841 841 842 843 845 846 847 848 849 850 851 851 852 852 853 853 853 854 854 854 855 855 855 855 855 855 856 856 856 856 856 855 854
790 780 776 781 785 790 794 794 797 797 799 801 797 804 810 798 791 791 792 799 799 794 793 789 785 785 784 784 784 783 783 783 784 787 787 789 791 793 796 799 801 803 805 807 810 812 815 817 819 821 822 824 825 826 828 829 830 831 833 834 835 836 837 838 840 841 842 843 844 846 846 847 848 849 850 851 851 852 852 853 853 853 854 854 854 854 854 854 854 855 855 856 856 856 856 855 855
787 778 777 780 783 788 790 792 794 793 798 806 798 798 810 805 794 794 797 803 807 800 795 791 786 784 783 782 781 780 780 780 781 784 785 787 790 792 794 797 800 802 804 806 808 811 813 816 818 820 821 823 824 826 827 828 830 831 832 833 834 836 836 838 840 841 842 843 844 845 846 847 847 848 849 850 850 851 852 852 853 853 853 853 853 853 853 854 854 854 855 855 855 855 855 855 854
780 776 777 780 783 786 789 791 791 796 806 812 802 797 811 808 794 798 805 806 806 801 793 789 785 783 783 781 779 778 778 779 779 780 782 785 788 791 793 796 799 801 803 806 807 809 812 815 817 819 820 822 824 825 827 828 829 830 832 833 834 835 836 837 839 840 841 843 843 844 845 846 847 847 848 849 850 850 851 851 852 852 852 852 853 853 853 853 853 853 854 854 854 854 854 854 854
775 778 782 786 787 787 790 789 789 803 815 812 803 797 808 812 794 786 794 792 789 790 790 789 786 783 782 780 778 777 776 778 778 778 780 783 787 790 792 795 797 800 802 804 807 808 811 813 815 818 820 821 823 824 826 827 829 830 831 832 833 835 836 837 838 839 841 842 843 843 844 845 845 846 846 847 848 849 850 850 851 851 852 852 852 852 852 852 852 852 853 853 853 853 854 854 854
776 781 786 796 799 798 801 801 800 816 822 812 803 797 805 817 799 777 777 776 774 779 785 787 787 783 781 779 777 775 774 776 777 779 779 781 786 789 791 793 795 798 801 803 805 807 809 811 814 816 818 820 822 823 825 827 828 829 830 832 833 834 835 836 837 838 840 841 842 843 843 844 845 845 846 846 847 848 849 849 850 850 851 851 851 851 851 851 851 852 852 852 853 853 853 854 854
779 783 792 806 814 819 822 817 811 816 816 806 801 803 808 807 790 773 772 772 770 772 775 778 780 780 779 778 777 774 773 774 775 778 779 780 784 787 789 791 794 796 799 801 803 805 807 810 812 815 817 819 821 822 824 826 827 829 830 831 832 833 835 835 836 837 838 839 840 841 842 843 844 844 845 845 846 847 847 848 849 849 850 850 851 851 851 851 851 851 851 852 852 852 853 853 853
785 788 797 808 815 829 833 818 811 812 809 801 799 806 808 795 781 772 769 769 769 769 770 771 773 775 777 777 776 775 773 773 773 776 778 779 782 785 787 789 792 794 796 799 801 803 806 808 810 813 815 817 819 821 823 824 826 828 829 830 832 833 834 835 836 836 837 838 839 840 841 841 842 843 843 844 845 845 846 847 848 848 849 849 849 850 850 850 851 851 851 851 851 852 852 852 852
783 778 785 796 800 817 826 816 814 814 806 804 807 809 802 792 783 771 766 768 768 769 771 771 772 773 773 774 776 777 775 772 772 773 775 777 779 783 785 787 790 792 794 796 799 801 804 806 808 811 812 815 817 819 821 823 824 826 828 829 831 832 833 834 835 836 836 837 838 839 839 840 840 841 842 843 843 844 845 845 846 847 848 848 848 849 849 849 850 850 850 851 851 851 851 851 851
780 773 782 791 785 793 807 808 806 807 807 806 804 799 783 774 771 763 765 769 768 770 772 772 775 773 772 775 776 778 778 775 772 772 774 775 777 781 783 785 787 789 792 794 796 799 802 804 807 809 811 813 815 817 819 821 823 824 826 828 829 831 832 832 833 834 835 836 837 837 838 839 839 840 841 842 842 843 844 844 845 846 846 847 847 848 848 848 849 849 850 850 850 850 850 850 850
781 782 788 784 772 780 800 808 800 804 815 806 793 790 774 766 771 766 768 772 769 771 772 772 774 773 773 776 775 777 779 778 775 773 772 773 776 780 781 782 785 787 789 792 794 797 799 802 804 807 809 811 813 815 817 819 821 823 824 826 828 829 830 831 831 833 834 834 836 836 837 838 839 839 840 840 841 842 842 843 844 844 845 845 846 847 847 847 848 848 849 849 849 849 849 849 849
780 787 782 773 775 781 793 810 810 811 818 801 789 794 785 780 784 774 770 774 773 772 772 772 774 774 774 774 773 775 776 777 776 773 772 772 775 779 780 780 782 784 787 789 792 795 797 800 802 804 807 809 811 813 814 817 818 820 822 824 825 827 828 829 830 831 832 833 834 835 836 836 837 838 838 839 840 840 841 842 842 843 843 844 845 845 846 847 847 848 848 848 848 848 848 848 848
772 775 768 774 793 795 795 809 816 817 817 801 791 794 789 784 781 773 773 775 774 774 774 774 773 773 774 772 773 775 775 777 778 776 775 773 774 777 778 779 780 782 785 787 791 794 796 798 800 802 804 806 809 810 812 814 816 818 820 821 823 825 826 827 828 829 830 831 832 833 834 835 835 836 837 838 839 839 840 840 841 841 842 842 843 844 845 845 846 846 847 847 847 847 847 847 847
770 770 768 773 784 788 791 797 801 807 813 807 801 797 786 776 770 769 776 776 773 776 775 775 773 771 771 771 772 774 775 776 777 777 777 775 775 776 777 779 780 782 785 786 789 793 794 797 799 800 802 804 806 808 810 812 813 815 817 819 820 822 824 825 826 828 829 829 830 831 832 833 834 835 835 837 837 838 838 839 839 840 840 840 841 842 843 843 844 845 845 845 845 845 846 846 845
775 779 781 780 779 780 784 785 783 792 805 808 812 806 785 772 769 770 775 776 773 774 774 774 774 771 771 772 773 774 774 775 774 775 776 776 776 776 776 778 780 781 784 785 788 790 793 795 797 798 800 801 803 805 807 810 811 813 815 816 818 820 822 823 824 826 827 827 828 829 830 831 832 833 834 835 836 836 837 837 838 838 838 839 840 840 841 841 842 843 843 844 844 844 845 845 844
770 774 774 775 778 782 794 797 783 783 795 799 808 810 788 773 772 771 773 776 774 773 773 773 773 773 773 772 772 773 774 774 773 773 774 774 775 776 776 777 779 780 782 784 786 788 791 793 794 797 799 800 801 802 805 807 809 811 812 814 816 818 820 821 822 823 824 825 826 827 828 829 830 831 832 833 834 834 835 836 836 836 837 838 838 839 840 839 839 840 841 841 841 842 843 843 844